Miscellaneous Local Product
Issued by NWS North Platte, NE

Home | Current Version | Previous Version | Graphics & Text | Print | Product List | Glossary On
Versions: 1 2 3 4 5 6 7 8 9 10 11 12 13 14 15 16 17 18 19 20 21 22 23 24 25 26 27 28 29 30 31 32 33 34 35 36 37 38 39 40 41 42 43 44 45 46 47 48 49 50
000
AXUS43 KLBF 211410
MISLBF


WESTERN AND NORTH CENTRAL NEBRASKA HOURLY WEATHER ROUNDUP
NATIONAL WEATHER SERVICE NORTH PLATTE NE
800 AM CST WED FEB 21 2018

NOTE: "FAIR" INDICATES FEW OR NO CLOUDS BELOW 12,000 FEET WITH NO
SIGNIFICANT WEATHER AND/OR OBSTRUCTIONS TO VISIBILITY.

NOTE: STATIONS NOT REPORTING VARIABLES SUCH AS SKY/WEATHER OR
PRESSURE ARE PROVIDED BY RAWS AND APRS NETWORKS AND ARE NOT UNDER
NATIONAL WEATHER SERVICE QUALITY CONTROL.

...OBSERVATIONS IN AND NEAR THE EASTERN PANHANDLE OF NEBRASKA...

CITY           SKY/WX    TMP DP  RH WIND       PRES   REMARKS
PINE RIDGE     CLEAR    -19 -25  73 CALM      30.29R
GORDON         FAIR     -11 -16  80 SW3       30.27S
CHADRON        PTCLDY   -19 -27  66 S7        30.31R WCI -36
ALLIANCE       FOG      -17 -21  82 NW3       30.26R VSB 1
SIDNEY         CLEAR     -7 -12  79 SW9       30.27R WCI -24
$$

...OBSERVATIONS IN NORTHERN NEBRASKA AND FAR SOUTHERN SOUTH DAKOTA...

CITY           SKY/WX    TMP DP  RH WIND       PRES   REMARKS
WINNER         FAIR      -2 -11  65 SW6       30.45R WCI -14
VALENTINE      CLEAR    -13 -19  75 SW8       30.41R WCI -30
AINSWORTH      CLEAR     -4 -10  78 SW3       30.41R
O`NEILL        CLEAR     -8 -13  80 S6        30.48R WCI -22
THEDFORD       CLEAR     -7 -12  79 CALM      30.39R
BROKEN BOW     CLEAR     -4  -9  79 CALM      30.45R
ALBION         CLOUDY     1  -5  78 CALM      30.55R
$$

...OBSERVATIONS IN SOUTHWEST NEBRASKA AND FAR NORTHEAST COLORADO...

CITY           SKY/WX    TMP DP  RH WIND       PRES   REMARKS
WRAY           FAIR       3  -2  78 W6        30.35R WCI  -8
HOLYOKE        FAIR       1  -4  78 W6        30.33R WCI -10
IMPERIAL       CLEAR     -5  -9  83 CALM      30.38R
OGALLALA       CLEAR     -4  -8  81 W8        30.37R WCI -19
NORTH PLATTE   CLEAR     -6 -11  79 SE5       30.43R WCI -17
MCCOOK         CLEAR      2  -1  88 S5        30.48R WCI  -8
LEXINGTON      CLEAR      5   0  79 CALM      30.48R
GOTHENBURG       N/A      1  -3  82 CALM        N/A
CALLAWAY         N/A     -4  -8  81 CALM        N/A
$$

...OBSERVATIONS IN CENTRAL LINCOLN COUNTY AREA...

CITY           SKY/WX    TMP DP  RH WIND       PRES   REMARKS
N.P. AIRPORT   CLEAR     -6 -11  79 SE5       30.43R WCI -17
$$

...OBSERVATIONS ACROSS THE ROCKIES AND WESTERN HIGH PLAINS...

CITY           SKY/WX    TMP DP  RH WIND       PRES   REMARKS
RAPID CITY     PTCLDY   -11 -15  82 NW5       30.26F WCI -23
SCOTTSBLUFF    CLEAR    -10 -16  74 N3        30.28R
CHEYENNE       CLEAR      1  -2  87 W5        30.12R WCI  -9
DENVER         PTCLDY     1  -4  79 SW10      30.18S WCI -15
BERTHOUD PASS  FAIR      -8 -18  59 W15G25    29.84R WCI -29
COPPER MTN     CLEAR      1 -15  46 S18       29.87S WCI -19
MONARCH PASS   CLEAR     -4  -8  84 SW17G23   30.01R WCI -26
ASPEN          CLEAR     -8 -13  78 S3        30.05S
LARAMIE        CLEAR    -10 -14  82 S6        30.04R WCI -23
CASPER         CLEAR     -6 -11  79 W12       30.10R WCI -25
$$

...OBSERVATIONS ACROSS THE NORTHERN PLAINS...

CITY           SKY/WX    TMP DP  RH WIND       PRES   REMARKS
BISMARCK       CLEAR     -7 -14  71 CALM      30.39R
FARGO          FAIR      -5 -11  75 S9        30.47R WCI -22
PIERRE         PTCLDY    -8 -13  78 W8        30.44F WCI -24
SIOUX FALLS    CLOUDY    -5  -9  83 CALM      30.53R
$$

...OBSERVATIONS ACROSS THE CENTRAL AND SOUTHERN PLAINS...

CITY           SKY/WX    TMP DP  RH WIND       PRES   REMARKS
OMAHA          CLOUDY     9   4  80 N5        30.62S WCI   1
GRAND ISLAND   CLOUDY     5  -1  76 CALM      30.54R
KANSAS CITY    CLOUDY    14  10  84 N15       30.55R WCI  -1
WICHITA        CLOUDY    16  10  77 N15       30.51R WCI   1
DODGE CITY     CLOUDY    10   0  63 NE13      30.45S WCI  -5
OKLAHOMA CITY  CLOUDY    21  17  84 N20G26    30.39F WCI   6
DALLAS         CLOUDY    36  32  85 N12       30.28R WCI  28
AMARILLO       CLOUDY    17   1  49 N17       30.32S WCI   1
$$




USA.gov is the U.S. government's official web portal to all federal, state and local government web resources and services.